Voltar ao catálogo

VELA 2

LostMilitarHEO
NORAD 674·PAYLOAD·🇺🇸 United States

Lançado Oct 17, 1963 de Cape Canaveral Space Force Station

Loading…

Próximas Passagens (próximas 24 horas)

TLE

ObsoletoSource: Space-Track

Época: Aug 12, 2026, 08:25 UTC

1 00674U 63039A   26224.35111229 -.00000709  00000-0  00000-0 0  9995
2 00674  47.8631  92.8572 6522159  86.9089 359.7597  0.22186319  9502

Acompanhe VELA 2 em tempo real com AllMySat

Download on the App Store